Year,Month,Day,Hour,Minute,Value (Times are PST for temperature in C)
2015,06,15,00,00,15.80
2015,06,15,00,01,15.70
2015,06,15,00,02,15.70
2015,06,15,00,03,15.70
2015,06,15,00,04,15.60
2015,06,15,00,05,15.60
2015,06,15,00,06,15.50
2015,06,15,00,07,15.50
2015,06,15,00,08,15.50
2015,06,15,00,09,15.60
2015,06,15,00,10,15.60
2015,06,15,00,11,15.70
2015,06,15,00,12,15.80
2015,06,15,00,13,15.90
2015,06,15,00,14,15.90
2015,06,15,00,15,15.90
2015,06,15,00,16,15.90
2015,06,15,00,17,16.00
2015,06,15,00,18,15.90
2015,06,15,00,19,15.90
2015,06,15,00,20,15.90
2015,06,15,00,21,15.90
2015,06,15,00,22,15.90
2015,06,15,00,23,15.80
2015,06,15,00,24,15.70
2015,06,15,00,25,15.70
2015,06,15,00,26,15.70
2015,06,15,00,27,15.70
2015,06,15,00,28,15.70
2015,06,15,00,29,15.70
2015,06,15,00,30,15.70
2015,06,15,00,31,15.80
2015,06,15,00,32,15.80
2015,06,15,00,33,15.80
2015,06,15,00,34,15.80
2015,06,15,00,35,15.80
2015,06,15,00,36,15.80
2015,06,15,00,37,15.80
2015,06,15,00,38,15.80
2015,06,15,00,39,15.80
2015,06,15,00,40,15.80
2015,06,15,00,41,15.80
2015,06,15,00,42,15.80
2015,06,15,00,43,15.80
2015,06,15,00,44,15.80
2015,06,15,00,45,15.80
2015,06,15,00,46,15.80
2015,06,15,00,47,15.80
2015,06,15,00,48,15.80
2015,06,15,00,49,15.80
2015,06,15,00,50,15.80
2015,06,15,00,51,15.80
2015,06,15,00,52,15.80
2015,06,15,00,53,15.70
2015,06,15,00,54,15.80
2015,06,15,00,55,15.80
2015,06,15,00,56,15.80
2015,06,15,00,57,15.80
2015,06,15,00,58,15.80
2015,06,15,00,59,15.80
2015,06,15,01,00,15.80
2015,06,15,01,01,15.80
2015,06,15,01,02,15.80
2015,06,15,01,03,15.80
2015,06,15,01,04,15.80
2015,06,15,01,05,15.80
2015,06,15,01,06,15.80
2015,06,15,01,07,15.80
2015,06,15,01,08,15.70
2015,06,15,01,09,15.70
2015,06,15,01,10,15.70
2015,06,15,01,11,15.70
2015,06,15,01,12,15.70
2015,06,15,01,13,15.70
2015,06,15,01,14,15.60
2015,06,15,01,15,15.60
2015,06,15,01,16,15.60
2015,06,15,01,17,15.60
2015,06,15,01,18,15.60
2015,06,15,01,19,15.60
2015,06,15,01,20,15.60
2015,06,15,01,21,15.60
2015,06,15,01,22,15.60
2015,06,15,01,23,15.50
2015,06,15,01,24,15.50
2015,06,15,01,25,15.60
2015,06,15,01,26,15.60
2015,06,15,01,27,15.60
2015,06,15,01,28,15.60
2015,06,15,01,29,15.60
2015,06,15,01,30,15.60
2015,06,15,01,31,15.60
2015,06,15,01,32,15.60
2015,06,15,01,33,15.60
2015,06,15,01,34,15.60
2015,06,15,01,35,15.60
2015,06,15,01,36,15.60
2015,06,15,01,37,15.60
2015,06,15,01,38,15.60
2015,06,15,01,39,15.60
2015,06,15,01,40,15.60
2015,06,15,01,41,15.60
2015,06,15,01,42,15.60
2015,06,15,01,43,15.60
2015,06,15,01,44,15.50
2015,06,15,01,45,15.50
2015,06,15,01,46,15.50
2015,06,15,01,47,15.40
2015,06,15,01,48,15.40
2015,06,15,01,49,15.40
2015,06,15,01,50,15.40
2015,06,15,01,51,15.40
2015,06,15,01,52,15.30
2015,06,15,01,53,15.30
2015,06,15,01,54,15.30
2015,06,15,01,55,15.30
2015,06,15,01,56,15.30
2015,06,15,01,57,15.30
2015,06,15,01,58,15.30
2015,06,15,01,59,15.30
2015,06,15,02,00,15.30
2015,06,15,02,01,15.20
2015,06,15,02,02,15.20
2015,06,15,02,03,15.20
2015,06,15,02,04,15.20
2015,06,15,02,05,15.20
2015,06,15,02,06,15.20
2015,06,15,02,07,15.20
2015,06,15,02,08,15.20
2015,06,15,02,09,15.10
2015,06,15,02,10,15.10
2015,06,15,02,11,15.10
2015,06,15,02,12,15.10
2015,06,15,02,13,15.10
2015,06,15,02,14,15.10
2015,06,15,02,15,15.10
2015,06,15,02,16,15.10
2015,06,15,02,17,15.10
2015,06,15,02,18,15.20
2015,06,15,02,19,15.20
2015,06,15,02,20,15.20
2015,06,15,02,21,15.20
2015,06,15,02,22,15.20
2015,06,15,02,23,15.20
2015,06,15,02,24,15.20
2015,06,15,02,25,15.20
2015,06,15,02,26,15.20
2015,06,15,02,27,15.10
2015,06,15,02,28,15.10
2015,06,15,02,29,15.10
2015,06,15,02,30,15.10
2015,06,15,02,31,15.10
2015,06,15,02,32,15.10
2015,06,15,02,33,15.10
2015,06,15,02,34,15.20
2015,06,15,02,35,15.20
2015,06,15,02,36,15.20
2015,06,15,02,37,15.10
2015,06,15,02,38,15.10
2015,06,15,02,39,15.10
2015,06,15,02,40,15.10
2015,06,15,02,41,15.10
2015,06,15,02,42,15.10
2015,06,15,02,43,15.10
2015,06,15,02,44,15.10
2015,06,15,02,45,15.10
2015,06,15,02,46,15.10
2015,06,15,02,47,15.00
2015,06,15,02,48,15.00
2015,06,15,02,49,15.00
2015,06,15,02,50,15.00
2015,06,15,02,51,15.00
2015,06,15,02,52,15.00
2015,06,15,02,53,15.00
2015,06,15,02,54,15.00
2015,06,15,02,55,15.00
2015,06,15,02,56,15.00
2015,06,15,02,57,15.00
2015,06,15,02,58,15.00
2015,06,15,02,59,15.00
2015,06,15,03,00,15.00
2015,06,15,03,01,14.90
2015,06,15,03,02,14.90
2015,06,15,03,03,14.90
2015,06,15,03,04,14.90
2015,06,15,03,05,14.80
2015,06,15,03,06,14.80
2015,06,15,03,07,14.80
2015,06,15,03,08,14.80
2015,06,15,03,09,14.80
2015,06,15,03,10,14.80
2015,06,15,03,11,14.80
2015,06,15,03,12,14.80
2015,06,15,03,13,14.70
2015,06,15,03,14,14.70
2015,06,15,03,15,14.70
2015,06,15,03,16,14.70
2015,06,15,03,17,14.70
2015,06,15,03,18,14.60
2015,06,15,03,19,14.60
2015,06,15,03,20,14.60
2015,06,15,03,21,14.60
2015,06,15,03,22,14.60
2015,06,15,03,23,14.50
2015,06,15,03,24,14.50
2015,06,15,03,25,14.50
2015,06,15,03,26,14.40
2015,06,15,03,27,14.40
2015,06,15,03,28,14.40
2015,06,15,03,29,14.40
2015,06,15,03,30,14.30
2015,06,15,03,31,14.30
2015,06,15,03,32,14.30
2015,06,15,03,33,14.30
2015,06,15,03,34,14.20
2015,06,15,03,35,14.20
2015,06,15,03,36,14.10
2015,06,15,03,37,14.00
2015,06,15,03,38,13.90
2015,06,15,03,39,13.80
2015,06,15,03,40,13.70
2015,06,15,03,41,13.70
2015,06,15,03,42,13.60
2015,06,15,03,43,13.50
2015,06,15,03,44,13.40
2015,06,15,03,45,13.40
2015,06,15,03,46,13.40
2015,06,15,03,47,13.40
2015,06,15,03,48,13.50
2015,06,15,03,49,13.50
2015,06,15,03,50,13.40
2015,06,15,03,51,13.40
2015,06,15,03,52,13.40
2015,06,15,03,53,13.40
2015,06,15,03,54,13.40
2015,06,15,03,55,13.40
2015,06,15,03,56,13.40
2015,06,15,03,57,13.40
2015,06,15,03,58,13.40
2015,06,15,03,59,13.40
2015,06,15,04,00,13.40
2015,06,15,04,01,13.40
2015,06,15,04,02,13.30
2015,06,15,04,03,13.30
2015,06,15,04,04,13.30
2015,06,15,04,05,13.30
2015,06,15,04,06,13.30
2015,06,15,04,07,13.30
2015,06,15,04,08,13.30
2015,06,15,04,09,13.30
2015,06,15,04,10,13.20
2015,06,15,04,11,13.10
2015,06,15,04,12,13.00
2015,06,15,04,13,12.90
2015,06,15,04,14,12.90
2015,06,15,04,15,12.80
2015,06,15,04,16,12.70
2015,06,15,04,17,12.60
2015,06,15,04,18,12.50
2015,06,15,04,19,12.40
2015,06,15,04,20,12.40
2015,06,15,04,21,12.40
2015,06,15,04,22,12.30
2015,06,15,04,23,12.30
2015,06,15,04,24,12.30
2015,06,15,04,25,12.30
2015,06,15,04,26,12.20
2015,06,15,04,27,12.20
2015,06,15,04,28,12.20
2015,06,15,04,29,12.20
2015,06,15,04,30,12.20
2015,06,15,04,31,12.20
2015,06,15,04,32,12.20
2015,06,15,04,33,12.20
2015,06,15,04,34,12.10
2015,06,15,04,35,12.10
2015,06,15,04,36,12.00
2015,06,15,04,37,12.00
2015,06,15,04,38,12.10
2015,06,15,04,39,12.10
2015,06,15,04,40,12.10
2015,06,15,04,41,12.20
2015,06,15,04,42,12.20
2015,06,15,04,43,12.30
2015,06,15,04,44,12.30
2015,06,15,04,45,12.30
2015,06,15,04,46,12.30
2015,06,15,04,47,12.40
2015,06,15,04,48,12.40
2015,06,15,04,49,12.50
2015,06,15,04,50,12.50
2015,06,15,04,51,12.60
2015,06,15,04,52,12.60
2015,06,15,04,53,12.70
2015,06,15,04,54,12.70
2015,06,15,04,55,12.80
2015,06,15,04,56,12.80
2015,06,15,04,57,12.90
2015,06,15,04,58,12.90
2015,06,15,04,59,12.90
2015,06,15,05,00,13.00
2015,06,15,05,01,12.90
2015,06,15,05,02,12.90
2015,06,15,05,03,12.90
2015,06,15,05,04,13.00
2015,06,15,05,05,13.00
2015,06,15,05,06,13.00
2015,06,15,05,07,13.00
2015,06,15,05,08,13.00
2015,06,15,05,09,13.00
2015,06,15,05,10,13.10
2015,06,15,05,11,13.10
2015,06,15,05,12,13.10
2015,06,15,05,13,13.10
2015,06,15,05,14,13.10
2015,06,15,05,15,13.10
2015,06,15,05,16,13.10
2015,06,15,05,17,13.10
2015,06,15,05,18,13.10
2015,06,15,05,19,13.10
2015,06,15,05,20,13.10
2015,06,15,05,21,13.10
2015,06,15,05,22,13.10
2015,06,15,05,23,13.10
2015,06,15,05,24,13.10
2015,06,15,05,25,13.10
2015,06,15,05,26,13.10
2015,06,15,05,27,13.10
2015,06,15,05,28,13.10
2015,06,15,05,29,13.10
2015,06,15,05,30,13.20
2015,06,15,05,31,13.20
2015,06,15,05,32,13.20
2015,06,15,05,33,13.20
2015,06,15,05,34,13.20
2015,06,15,05,35,13.30
2015,06,15,05,36,13.30
2015,06,15,05,37,13.30
2015,06,15,05,38,13.30
2015,06,15,05,39,13.30
2015,06,15,05,40,13.30
2015,06,15,05,41,13.40
2015,06,15,05,42,13.40
2015,06,15,05,43,13.40
2015,06,15,05,44,13.40
2015,06,15,05,45,13.40
2015,06,15,05,46,13.40
2015,06,15,05,47,13.40
2015,06,15,05,48,13.40
2015,06,15,05,49,13.40
2015,06,15,05,50,13.40
2015,06,15,05,51,13.40
2015,06,15,05,52,13.30
2015,06,15,05,53,13.30
2015,06,15,05,54,13.30
2015,06,15,05,55,13.30
2015,06,15,05,56,13.40
2015,06,15,05,57,13.40
2015,06,15,05,58,13.40
2015,06,15,05,59,13.40
2015,06,15,06,00,13.40
2015,06,15,06,01,13.30
2015,06,15,06,02,13.30
2015,06,15,06,03,13.30
2015,06,15,06,04,13.40
2015,06,15,06,05,13.40
2015,06,15,06,06,13.40
2015,06,15,06,07,13.40
2015,06,15,06,08,13.40
2015,06,15,06,09,13.40
2015,06,15,06,10,13.40
2015,06,15,06,11,13.40
2015,06,15,06,12,13.50
2015,06,15,06,13,13.50
2015,06,15,06,14,13.50
2015,06,15,06,15,13.50
2015,06,15,06,16,13.60
2015,06,15,06,17,13.60
2015,06,15,06,18,13.60
2015,06,15,06,19,13.60
2015,06,15,06,20,13.70
2015,06,15,06,21,13.70
2015,06,15,06,22,13.70
2015,06,15,06,23,13.70
2015,06,15,06,24,13.70
2015,06,15,06,25,13.70
2015,06,15,06,26,13.80
2015,06,15,06,27,13.80
2015,06,15,06,28,13.80
2015,06,15,06,29,13.80
2015,06,15,06,30,13.80
2015,06,15,06,31,13.80
2015,06,15,06,32,13.90
2015,06,15,06,33,13.90
2015,06,15,06,34,13.90
2015,06,15,06,35,13.90
2015,06,15,06,36,13.90
2015,06,15,06,37,14.00
2015,06,15,06,38,14.00
2015,06,15,06,39,14.00
2015,06,15,06,40,14.10
2015,06,15,06,41,14.10
2015,06,15,06,42,14.10
2015,06,15,06,43,14.20
2015,06,15,06,44,14.20
2015,06,15,06,45,14.20
2015,06,15,06,46,14.20
2015,06,15,06,47,14.30
2015,06,15,06,48,14.30
2015,06,15,06,49,14.30
2015,06,15,06,50,14.30
2015,06,15,06,51,14.40
2015,06,15,06,52,14.40
2015,06,15,06,53,14.40
2015,06,15,06,54,14.50
2015,06,15,06,55,14.50
2015,06,15,06,56,14.60
2015,06,15,06,57,14.60
2015,06,15,06,58,14.60
2015,06,15,06,59,14.70
2015,06,15,07,00,14.70
2015,06,15,07,01,14.70
2015,06,15,07,02,14.70
2015,06,15,07,03,14.70
2015,06,15,07,04,14.80
2015,06,15,07,05,14.80
2015,06,15,07,06,14.80
2015,06,15,07,07,14.80
2015,06,15,07,08,14.90
2015,06,15,07,09,14.90
2015,06,15,07,10,14.90
2015,06,15,07,11,15.00
2015,06,15,07,12,15.00
2015,06,15,07,13,15.10
2015,06,15,07,14,15.10
2015,06,15,07,15,15.10
2015,06,15,07,16,15.20
2015,06,15,07,17,15.20
2015,06,15,07,18,15.20
2015,06,15,07,19,15.30
2015,06,15,07,20,15.30
2015,06,15,07,21,15.30
2015,06,15,07,22,15.30
2015,06,15,07,23,15.30
2015,06,15,07,24,15.40
2015,06,15,07,25,15.40
2015,06,15,07,26,15.40
2015,06,15,07,27,15.50
2015,06,15,07,28,15.50
2015,06,15,07,29,15.60
2015,06,15,07,30,15.60
2015,06,15,07,31,15.60
2015,06,15,07,32,15.70
2015,06,15,07,33,15.70
2015,06,15,07,34,15.70
2015,06,15,07,35,15.70
2015,06,15,07,36,15.70
2015,06,15,07,37,15.70
2015,06,15,07,38,15.80
2015,06,15,07,39,15.70
2015,06,15,07,40,15.70
2015,06,15,07,41,15.60
2015,06,15,07,42,15.50
2015,06,15,07,43,15.30
2015,06,15,07,44,15.10
2015,06,15,07,45,15.00
2015,06,15,07,46,14.90
2015,06,15,07,47,14.70
2015,06,15,07,48,14.70
2015,06,15,07,49,14.60
2015,06,15,07,50,14.50
2015,06,15,07,51,14.40
2015,06,15,07,52,14.40
2015,06,15,07,53,14.40
2015,06,15,07,54,14.40
2015,06,15,07,55,14.40
2015,06,15,07,56,14.40
2015,06,15,07,57,14.40
2015,06,15,07,58,14.40
2015,06,15,07,59,14.50
2015,06,15,08,00,14.50
2015,06,15,08,01,14.50
2015,06,15,08,02,14.50
2015,06,15,08,03,14.40
2015,06,15,08,04,14.50
2015,06,15,08,05,14.50
2015,06,15,08,06,14.50
2015,06,15,08,07,14.60
2015,06,15,08,08,14.60
2015,06,15,08,09,14.60
2015,06,15,08,10,14.60
2015,06,15,08,11,14.60
2015,06,15,08,12,14.60
2015,06,15,08,13,14.60
2015,06,15,08,14,14.60
2015,06,15,08,15,14.60
2015,06,15,08,16,14.70
2015,06,15,08,17,14.70
2015,06,15,08,18,14.70
2015,06,15,08,19,14.60
2015,06,15,08,20,14.60
2015,06,15,08,21,14.60
2015,06,15,08,22,14.60
2015,06,15,08,23,14.50
2015,06,15,08,24,14.50
2015,06,15,08,25,14.50
2015,06,15,08,26,14.50
2015,06,15,08,27,14.50
2015,06,15,08,28,14.50
2015,06,15,08,29,14.40
2015,06,15,08,30,14.30
2015,06,15,08,31,14.20
2015,06,15,08,32,14.20
2015,06,15,08,33,14.20
2015,06,15,08,34,14.20
2015,06,15,08,35,14.10
2015,06,15,08,36,14.10
2015,06,15,08,37,14.10
2015,06,15,08,38,14.10
2015,06,15,08,39,14.10
2015,06,15,08,40,14.10
2015,06,15,08,41,14.00
2015,06,15,08,42,13.90
2015,06,15,08,43,13.90
2015,06,15,08,44,13.80
2015,06,15,08,45,13.90
2015,06,15,08,46,13.90
2015,06,15,08,47,13.90
2015,06,15,08,48,14.00
2015,06,15,08,49,14.10
2015,06,15,08,50,14.20
2015,06,15,08,51,14.30
2015,06,15,08,52,14.40
2015,06,15,08,53,14.40
2015,06,15,08,54,14.40
2015,06,15,08,55,14.50
2015,06,15,08,56,14.50
2015,06,15,08,57,14.50
2015,06,15,08,58,14.50
2015,06,15,08,59,14.50
2015,06,15,09,00,14.60
2015,06,15,09,01,14.50
2015,06,15,09,02,14.50
2015,06,15,09,03,14.50
2015,06,15,09,04,14.50
2015,06,15,09,05,14.60
2015,06,15,09,06,14.60
2015,06,15,09,07,14.60
2015,06,15,09,08,14.60
2015,06,15,09,09,14.60
2015,06,15,09,10,14.60
2015,06,15,09,11,14.60
2015,06,15,09,12,14.60
2015,06,15,09,13,14.70
2015,06,15,09,14,14.70
2015,06,15,09,15,14.60
2015,06,15,09,16,14.60
2015,06,15,09,17,14.70
2015,06,15,09,18,14.70
2015,06,15,09,19,14.80
2015,06,15,09,20,14.90
2015,06,15,09,21,14.90
2015,06,15,09,22,15.00
2015,06,15,09,23,15.00
2015,06,15,09,24,15.10
2015,06,15,09,25,15.20
2015,06,15,09,26,15.30
2015,06,15,09,27,15.30
2015,06,15,09,28,15.30
2015,06,15,09,29,15.30
2015,06,15,09,30,15.30
2015,06,15,09,31,15.40
2015,06,15,09,32,15.40
2015,06,15,09,33,15.40
2015,06,15,09,34,15.40
2015,06,15,09,35,15.40
2015,06,15,09,36,15.40
2015,06,15,09,37,15.40
2015,06,15,09,38,15.50
2015,06,15,09,39,15.50
2015,06,15,09,40,15.50
2015,06,15,09,41,15.50
2015,06,15,09,42,15.50
2015,06,15,09,43,15.60
2015,06,15,09,44,15.60
2015,06,15,09,45,15.60
2015,06,15,09,46,15.60
2015,06,15,09,47,15.60
2015,06,15,09,48,15.60
2015,06,15,09,49,15.70
2015,06,15,09,50,15.70
2015,06,15,09,51,15.70
2015,06,15,09,52,15.80
2015,06,15,09,53,15.80
2015,06,15,09,54,15.80
2015,06,15,09,55,15.80
2015,06,15,09,56,15.90
2015,06,15,09,57,16.00
2015,06,15,09,58,16.00
2015,06,15,09,59,16.00
2015,06,15,10,00,16.10
2015,06,15,10,01,16.10
2015,06,15,10,02,16.00
2015,06,15,10,03,16.00
2015,06,15,10,04,15.90
2015,06,15,10,05,15.80
2015,06,15,10,06,15.80
2015,06,15,10,07,15.80
2015,06,15,10,08,15.80
2015,06,15,10,09,15.90
2015,06,15,10,10,15.90
2015,06,15,10,11,16.00
2015,06,15,10,12,16.10
2015,06,15,10,13,16.10
2015,06,15,10,14,16.10
2015,06,15,10,15,16.00
2015,06,15,10,16,16.00
2015,06,15,10,17,16.00
2015,06,15,10,18,16.00
2015,06,15,10,19,16.00
2015,06,15,10,20,16.00
2015,06,15,10,21,16.00
2015,06,15,10,22,16.00
2015,06,15,10,23,16.10
2015,06,15,10,24,16.20
2015,06,15,10,25,16.20
2015,06,15,10,26,16.20
2015,06,15,10,27,16.30
2015,06,15,10,28,16.30
2015,06,15,10,29,16.40
2015,06,15,10,30,16.40
2015,06,15,10,31,16.40
2015,06,15,10,32,16.40
2015,06,15,10,33,16.40
2015,06,15,10,34,16.40
2015,06,15,10,35,16.40
2015,06,15,10,36,16.40
2015,06,15,10,37,16.40
2015,06,15,10,38,16.40
2015,06,15,10,39,16.40
2015,06,15,10,40,16.40
2015,06,15,10,41,16.40
2015,06,15,10,42,16.40
2015,06,15,10,43,16.40
2015,06,15,10,44,16.50
2015,06,15,10,45,16.60
2015,06,15,10,46,16.60
2015,06,15,10,47,16.60
2015,06,15,10,48,16.70
2015,06,15,10,49,16.70
2015,06,15,10,50,16.70
2015,06,15,10,51,16.70
2015,06,15,10,52,16.80
2015,06,15,10,53,16.90
2015,06,15,10,54,17.00
2015,06,15,10,55,17.00
2015,06,15,10,56,17.10
2015,06,15,10,57,17.20
2015,06,15,10,58,17.30
2015,06,15,10,59,17.30
2015,06,15,11,00,17.40
2015,06,15,11,01,17.40
2015,06,15,11,02,17.50
2015,06,15,11,03,17.40
2015,06,15,11,04,17.40
2015,06,15,11,05,17.30
2015,06,15,11,06,17.30
2015,06,15,11,07,17.40
2015,06,15,11,08,17.40
2015,06,15,11,09,17.40
2015,06,15,11,10,17.50
2015,06,15,11,11,17.40
2015,06,15,11,12,17.40
2015,06,15,11,13,17.40
2015,06,15,11,14,17.40
2015,06,15,11,15,17.30
2015,06,15,11,16,17.30
2015,06,15,11,17,17.30
2015,06,15,11,18,17.30
2015,06,15,11,19,17.30
2015,06,15,11,20,17.30
2015,06,15,11,21,17.30
2015,06,15,11,22,17.40
2015,06,15,11,23,17.40
2015,06,15,11,24,17.50
2015,06,15,11,25,17.60
2015,06,15,11,26,17.80
2015,06,15,11,27,17.80
2015,06,15,11,28,17.90
2015,06,15,11,29,17.90
2015,06,15,11,30,18.10
2015,06,15,11,31,18.10
2015,06,15,11,32,18.20
2015,06,15,11,33,18.30
2015,06,15,11,34,18.40
2015,06,15,11,35,18.40
2015,06,15,11,36,18.40
2015,06,15,11,37,18.40
2015,06,15,11,38,18.40
2015,06,15,11,39,18.40
2015,06,15,11,40,18.50
2015,06,15,11,41,18.60
2015,06,15,11,42,18.60
2015,06,15,11,43,18.70
2015,06,15,11,44,18.70
2015,06,15,11,45,18.80
2015,06,15,11,46,18.80
2015,06,15,11,47,18.90
2015,06,15,11,48,19.00
2015,06,15,11,49,19.10
2015,06,15,11,50,19.20
2015,06,15,11,51,19.20
2015,06,15,11,52,19.20
2015,06,15,11,53,19.20
2015,06,15,11,54,19.20
2015,06,15,11,55,19.10
2015,06,15,11,56,19.10
2015,06,15,11,57,19.10
2015,06,15,11,58,19.10
2015,06,15,11,59,19.10
2015,06,15,12,00,19.10
2015,06,15,12,01,19.20
2015,06,15,12,02,19.20
2015,06,15,12,03,19.20
2015,06,15,12,04,19.30
2015,06,15,12,05,19.40
2015,06,15,12,06,19.50
2015,06,15,12,07,19.60
2015,06,15,12,08,19.60
2015,06,15,12,09,19.70
2015,06,15,12,10,19.70
2015,06,15,12,11,19.80
2015,06,15,12,12,19.80
2015,06,15,12,13,19.80
2015,06,15,12,14,19.90
2015,06,15,12,15,19.90
2015,06,15,12,16,19.90
2015,06,15,12,17,20.00
2015,06,15,12,18,20.00
2015,06,15,12,19,20.00
2015,06,15,12,20,20.10
2015,06,15,12,21,20.10
2015,06,15,12,22,20.10
2015,06,15,12,23,20.10
2015,06,15,12,24,20.10
2015,06,15,12,25,20.00
2015,06,15,12,26,20.00
2015,06,15,12,27,19.90
2015,06,15,12,28,19.90
2015,06,15,12,29,19.90
2015,06,15,12,30,19.80
2015,06,15,12,31,19.80
2015,06,15,12,32,19.80
2015,06,15,12,33,19.80
2015,06,15,12,34,19.90
2015,06,15,12,35,20.00
2015,06,15,12,36,20.10
2015,06,15,12,37,20.30
2015,06,15,12,38,20.40
2015,06,15,12,39,20.50
2015,06,15,12,40,20.60
2015,06,15,12,41,20.70
2015,06,15,12,42,20.70
2015,06,15,12,43,20.80
2015,06,15,12,44,20.90
2015,06,15,12,45,21.00
2015,06,15,12,46,21.20
2015,06,15,12,47,21.30
2015,06,15,12,48,21.40
2015,06,15,12,49,21.60
2015,06,15,12,50,21.70
2015,06,15,12,51,21.70
2015,06,15,12,52,21.80
2015,06,15,12,53,21.80
2015,06,15,12,54,21.90
2015,06,15,12,55,21.90
2015,06,15,12,56,21.90
2015,06,15,12,57,22.00
2015,06,15,12,58,22.00
2015,06,15,12,59,22.10
2015,06,15,13,00,22.00
2015,06,15,13,01,22.00
2015,06,15,13,02,22.00
2015,06,15,13,03,22.00
2015,06,15,13,04,22.00
2015,06,15,13,05,22.10
2015,06,15,13,06,22.10
2015,06,15,13,07,22.10
2015,06,15,13,08,22.10
2015,06,15,13,09,22.10
2015,06,15,13,10,22.00
2015,06,15,13,11,22.00
2015,06,15,13,12,22.00
2015,06,15,13,13,22.00
2015,06,15,13,14,22.00
2015,06,15,13,15,22.00
2015,06,15,13,16,22.00
2015,06,15,13,17,22.00
2015,06,15,13,18,22.00
2015,06,15,13,19,22.00
2015,06,15,13,20,22.10
2015,06,15,13,21,22.10
2015,06,15,13,22,22.10
2015,06,15,13,23,22.20
2015,06,15,13,24,22.30
2015,06,15,13,25,22.50
2015,06,15,13,26,22.60
2015,06,15,13,27,22.80
2015,06,15,13,28,22.80
2015,06,15,13,29,22.90
2015,06,15,13,30,22.90
2015,06,15,13,31,23.00
2015,06,15,13,32,23.10
2015,06,15,13,33,23.20
2015,06,15,13,34,23.20
2015,06,15,13,35,23.20
2015,06,15,13,36,23.20
2015,06,15,13,37,23.30
2015,06,15,13,38,23.30
2015,06,15,13,39,23.30
2015,06,15,13,40,23.30
2015,06,15,13,41,23.30
2015,06,15,13,42,23.40
2015,06,15,13,43,23.40
2015,06,15,13,44,23.50
2015,06,15,13,45,23.60
2015,06,15,13,46,23.70
2015,06,15,13,47,23.80
2015,06,15,13,48,23.90
2015,06,15,13,49,24.00
2015,06,15,13,50,24.10
2015,06,15,13,51,24.20
2015,06,15,13,52,24.20
2015,06,15,13,53,24.20
2015,06,15,13,54,24.10
2015,06,15,13,55,24.00
2015,06,15,13,56,24.00
2015,06,15,13,57,24.00
2015,06,15,13,58,24.00
2015,06,15,13,59,24.00
2015,06,15,14,00,24.00
2015,06,15,14,01,23.90
2015,06,15,14,02,24.00
2015,06,15,14,03,24.00
2015,06,15,14,04,24.10
2015,06,15,14,05,24.10
2015,06,15,14,06,24.20
2015,06,15,14,07,24.20
2015,06,15,14,08,24.20
2015,06,15,14,09,24.20
2015,06,15,14,10,24.20
2015,06,15,14,11,24.20
2015,06,15,14,12,24.20
2015,06,15,14,13,24.30
2015,06,15,14,14,24.40
2015,06,15,14,15,24.50
2015,06,15,14,16,24.60
2015,06,15,14,17,24.70
2015,06,15,14,18,24.70
2015,06,15,14,19,24.80
2015,06,15,14,20,24.70
2015,06,15,14,21,24.60
2015,06,15,14,22,24.60
2015,06,15,14,23,24.50
2015,06,15,14,24,24.50
2015,06,15,14,25,24.60
2015,06,15,14,26,24.50
2015,06,15,14,27,24.40
2015,06,15,14,28,24.30
2015,06,15,14,29,24.30
2015,06,15,14,30,24.30
2015,06,15,14,31,24.30
2015,06,15,14,32,24.30
2015,06,15,14,33,24.30
2015,06,15,14,34,24.30
2015,06,15,14,35,24.30
2015,06,15,14,36,24.30
2015,06,15,14,37,24.30
2015,06,15,14,38,24.40
2015,06,15,14,39,24.40
2015,06,15,14,40,24.40
2015,06,15,14,41,24.40
2015,06,15,14,42,24.40
2015,06,15,14,43,24.30
2015,06,15,14,44,24.30
2015,06,15,14,45,24.30
2015,06,15,14,46,24.40
2015,06,15,14,47,24.50
2015,06,15,14,48,24.70
2015,06,15,14,49,24.70
2015,06,15,14,50,24.80
2015,06,15,14,51,24.70
2015,06,15,14,52,24.70
2015,06,15,14,53,24.70
2015,06,15,14,54,24.70
2015,06,15,14,55,24.70
2015,06,15,14,56,24.70
2015,06,15,14,57,24.60
2015,06,15,14,58,24.70
2015,06,15,14,59,24.70
2015,06,15,15,00,24.70
2015,06,15,15,01,24.70
2015,06,15,15,02,24.70
2015,06,15,15,03,24.70
2015,06,15,15,04,24.60
2015,06,15,15,05,24.60
2015,06,15,15,06,24.50
2015,06,15,15,07,24.50
2015,06,15,15,08,24.50
2015,06,15,15,09,24.50
2015,06,15,15,10,24.50
2015,06,15,15,11,24.50
2015,06,15,15,12,24.50
2015,06,15,15,13,24.60
2015,06,15,15,14,24.60
2015,06,15,15,15,24.70
2015,06,15,15,16,24.70
2015,06,15,15,17,24.70
2015,06,15,15,18,24.80
2015,06,15,15,19,24.80
2015,06,15,15,20,24.70
2015,06,15,15,21,24.70
2015,06,15,15,22,24.60
2015,06,15,15,23,24.50
2015,06,15,15,24,24.50
2015,06,15,15,25,24.50
2015,06,15,15,26,24.40
2015,06,15,15,27,24.50
2015,06,15,15,28,24.50
2015,06,15,15,29,24.60
2015,06,15,15,30,24.60
2015,06,15,15,31,24.70
2015,06,15,15,32,24.70
2015,06,15,15,33,24.70
2015,06,15,15,34,24.70
2015,06,15,15,35,24.70
2015,06,15,15,36,24.70
2015,06,15,15,37,24.70
2015,06,15,15,38,24.70
2015,06,15,15,39,24.70
2015,06,15,15,40,24.70
2015,06,15,15,41,24.60
2015,06,15,15,42,24.60
2015,06,15,15,43,24.60
2015,06,15,15,44,24.70
2015,06,15,15,45,24.70
2015,06,15,15,46,24.70
2015,06,15,15,47,24.70
2015,06,15,15,48,24.80
2015,06,15,15,49,24.80
2015,06,15,15,50,24.80
2015,06,15,15,51,24.80
2015,06,15,15,52,24.80
2015,06,15,15,53,24.80
2015,06,15,15,54,24.90
2015,06,15,15,55,25.00
2015,06,15,15,56,25.00
2015,06,15,15,57,25.00
2015,06,15,15,58,25.10
2015,06,15,15,59,25.00
2015,06,15,16,00,25.00
2015,06,15,16,01,25.00
2015,06,15,16,02,25.00
2015,06,15,16,03,25.10
2015,06,15,16,04,25.10
2015,06,15,16,05,25.10
2015,06,15,16,06,25.20
2015,06,15,16,07,25.20
2015,06,15,16,08,25.20
2015,06,15,16,09,25.30
2015,06,15,16,10,25.40
2015,06,15,16,11,25.50
2015,06,15,16,12,25.60
2015,06,15,16,13,25.70
2015,06,15,16,14,25.70
2015,06,15,16,15,25.80
2015,06,15,16,16,25.80
2015,06,15,16,17,25.90
2015,06,15,16,18,25.90
2015,06,15,16,19,26.00
2015,06,15,16,20,26.00
2015,06,15,16,21,26.10
2015,06,15,16,22,26.20
2015,06,15,16,23,26.20
2015,06,15,16,24,26.20
2015,06,15,16,25,26.20
2015,06,15,16,26,26.20
2015,06,15,16,27,26.10
2015,06,15,16,28,26.00
2015,06,15,16,29,26.00
2015,06,15,16,30,25.90
2015,06,15,16,31,25.90
2015,06,15,16,32,25.90
2015,06,15,16,33,25.90
2015,06,15,16,34,25.90
2015,06,15,16,35,25.90
2015,06,15,16,36,25.90
2015,06,15,16,37,25.90
2015,06,15,16,38,25.90
2015,06,15,16,39,26.00
2015,06,15,16,40,26.10
2015,06,15,16,41,26.10
2015,06,15,16,42,26.10
2015,06,15,16,43,26.00
2015,06,15,16,44,25.90
2015,06,15,16,45,25.90
2015,06,15,16,46,25.80
2015,06,15,16,47,25.70
2015,06,15,16,48,25.70
2015,06,15,16,49,25.60
2015,06,15,16,50,25.70
2015,06,15,16,51,25.70
2015,06,15,16,52,25.80
2015,06,15,16,53,26.00
2015,06,15,16,54,26.20
2015,06,15,16,55,26.30
2015,06,15,16,56,26.40
2015,06,15,16,57,26.50
2015,06,15,16,58,26.60
2015,06,15,16,59,26.60
2015,06,15,17,00,26.60
2015,06,15,17,01,26.60
2015,06,15,17,02,26.60
2015,06,15,17,03,26.60
2015,06,15,17,04,26.60
2015,06,15,17,05,26.60
2015,06,15,17,06,26.60
2015,06,15,17,07,26.60
2015,06,15,17,08,26.60
2015,06,15,17,09,26.60
2015,06,15,17,10,26.60
2015,06,15,17,11,26.60
2015,06,15,17,12,26.60
2015,06,15,17,13,26.60
2015,06,15,17,14,26.60
2015,06,15,17,15,26.60
2015,06,15,17,16,26.50
2015,06,15,17,17,26.40
2015,06,15,17,18,26.30
2015,06,15,17,19,26.30